Regional Weather Roundup
Issued by NWS

Home | Current Version | Previous Version | Graphics & Text | Print | Product List | Glossary Off
Versions: 1 2 3 4 5 6 7 8 9 10 11 12 13 14 15 16 17 18 19 20 21 22 23 24 25 26 27 28 29 30 31 32 33 34 35 36 37 38 39 40 41 42 43 44 45 46 47 48 49 50

000
ASUS43 KBIS 051120
RWRND

NORTH DAKOTA REGIONAL WEATHER ROUNDUP
NATIONAL WEATHER SERVICE BISMARCK ND
500 AM CST THU MAR 05 2015

NOTE: "FAIR" INDICATES FEW OR NO CLOUDS BELOW 12,000 FEET WITH NO
SIGNIFICANT WEATHER AND/OR OBSTRUCTIONS TO VISIBILITY.


NDZ001>003-009>011-017-051200-
NORTHWEST NORTH DAKOTA

CITY           SKY/WX    TMP DP  RH WIND       PRES   REMARKS
WILLISTON        N/A    N/A N/A N/A MISG      30.10F
MINOT          PTCLDY    -3 -12  65 S7        30.14F WCI -16
MINOT AFB      PTCLDY    -4 -11  69 SW10      30.14F WCI -21
$$

NDZ018>021-031>035-040>046-051200-
SOUTHWEST NORTH DAKOTA

CITY           SKY/WX    TMP DP  RH WIND       PRES   REMARKS
BISMARCK       PTCLDY    -6 -12  75 E5        30.25F WCI -17
DICKINSON      CLEAR      4  -4  69 S14       30.06F WCI -14
GARRISON         N/A     -9 -14  78 S7        30.16F WCI -24
HETTINGER ARPT CLEAR      5  -5  63 S5        30.12F WCI  -4
$$

NDZ004>008-012>016-024-026-027-054-051200-
NORTHEAST NORTH DAKOTA

CITY           SKY/WX    TMP DP  RH WIND       PRES   REMARKS
GRAND FORKS    PTCLDY   -12 -18  74 S8        30.36F WCI -29
GRND FRKS AFB  PTCLDY   -11 -19  69 SW7       30.34F WCI -27
DEVILS LAKE    PTCLDY    -9 -17  70 CALM      30.24F
$$

NDZ022-023-025-028>030-036>039-047>053-051200-
SOUTHEAST NORTH DAKOTA

CITY           SKY/WX    TMP DP  RH WIND       PRES   REMARKS
FARGO          PTCLDY    -9 -16  71 S7        30.40F WCI -24
JAMESTOWN      MOCLDY   -12 -18  74 S3        30.28F
$$



USA.gov is the U.S. government's official web portal to all federal, state and local government web resources and services.